Location: Broletto
(44.6000°N, 10.5833°E)
Time: 06:18:20
(UTC+00:00)

CSL-04 Rocket - Pass Details

Date: 18 April 2021
Orbit: 806 x 860 km, 98.9° (Epoch: 05 May)

Event Time Altitude Azimuth Distance (km) Brightness Sun altitude
Rises 18:43:50 0° 172° (S) 3,323 6.5 -7.1°
Reaches altitude 10° 18:46:11 10° 176° (S) 2,390 5.8 -7.5°
Maximum altitude 18:51:26 65° 258° (WSW) 888 4.1 -8.3°
Drops below altitude 10° 18:56:41 10° 340° (NNW) 2,397 6.8 -9.2°
Sets 18:59:03 0° 343° (NNW) 3,333 7.5 -9.5°
